"Pseudo-MPEC" for P11k4mh

Created 2021 Sep 18 13:07:10 UT using Find_Orb

Click here for an explanation of pseudo-MPECs

 
 Astrometry: 
     P11k4mh  C2021 09 04[+?%(_4GM8=h7F('Wvkm.Astrometry6[yNn2,tg:m*S[+s#Hd#PF51
     P11k4mh  C2021 09 04F[M7(5Nc4*k]redacted;wclickS7?UQ29^GyeA3_Yd+nkCvK`oUF51
     P11k4mh  C2021 09 04+,q)_bomhbR5a=here0for=*pwH!k9xhtI(CXgO*JexplanationF51

Station data:
(F51) Pan-STARRS 1, Haleakala  (N20.707235 W156.255910)  US/Hawaii.
   Observers N. Primak, A. Schultz, S. Watters, J. Thiel, T. Goggia. Measurer
   PS1 Science Consortium. 1.8-m Ritchey-Chrétien + CCD.

Orbital elements:  P11k4mh
   Perihelion 2021 Sep 16.922477 +/- 36.7618 TT = 22:08:22 (JD 2459474.422477)
Epoch 2021 Sep  4.0 TT = JDT 2459461.5   Earth MOID: 0.2292   AutoNEOCP
M 357.20125563 +/- 24.505256        (J2000 ecliptic)
n   0.21657955 +/- 0.271089         Peri.  184.60657 +/- 61.014302
a   2.74615098 +/- 2.25327          Node   172.42856 +/- 34.741783
e   0.5507399 +/- 0.248946          Incl.   11.60202 +/- 5.8026459
P   4.55                   H 23.6   G  0.15   U 11.9  SR
q 1.23373582 +/- 0.328149    Q 4.25856614 +/- 40.5282
From 3 observations 2021 Sept. 4 (34.0 min); mean residual 0".01
Residuals in arcseconds: 
210904 F51  .00   .01+    210904 F51  .00   .02-    210904 F51  .02-  .00     

Ephemerides (geocentric):
Date (UTC) HH   RA              Dec         delta   r     elong  mag " sig PA
---- -- -- --  -------------   -----------  ------ ------ -----  --- ---- ---
2021 09 18 13  00 48 31.590   -01 41 14.32  .23679 1.2339 163.8 21.7  73d   4
2021 09 18 14  00 48 39.348   -01 42 56.50  .23681 1.2339 163.8 21.7  73d   4
2021 09 18 15  00 48 47.101   -01 44 38.68  .23682 1.2339 163.8 21.7  73d   4
2021 09 18 16  00 48 54.851   -01 46 20.83  .23684 1.2339 163.8 21.7  73d   4
2021 09 18 17  00 49 02.595   -01 48 02.97  .23685 1.2339 163.8 21.7  73d   4
2021 09 18 18  00 49 10.336   -01 49 45.10  .23687 1.2339 163.8 21.7  73d   4
2021 09 18 19  00 49 18.072   -01 51 27.20  .23688 1.2339 163.8 21.7  73d   4
2021 09 18 20  00 49 25.803   -01 53 09.29  .23690 1.2339 163.8 21.7  73d   4
2021 09 18 21  00 49 33.530   -01 54 51.37  .23691 1.2339 163.8 21.7  73d   4
2021 09 18 22  00 49 41.252   -01 56 33.42  .23693 1.2339 163.8 21.7  73d   4
2021 09 18 23  00 49 48.970   -01 58 15.46  .23695 1.2340 163.8 21.7  73d   4
2021 09 19 00  00 49 56.684   -01 59 57.48  .23697 1.2340 163.8 21.7  73d   4
2021 09 19 01  00 50 04.393   -02 01 39.48  .23698 1.2340 163.8 21.7  73d   4
2021 09 19 02  00 50 12.097   -02 03 21.46  .23700 1.2340 163.8 21.7  73d   4
2021 09 19 03  00 50 19.796   -02 05 03.42  .23702 1.2340 163.8 21.7  73d   4
2021 09 19 04  00 50 27.491   -02 06 45.36  .23704 1.2340 163.9 21.7  73d   4
2021 09 19 05  00 50 35.182   -02 08 27.28  .23706 1.2340 163.9 21.7  73d   4
2021 09 19 06  00 50 42.868   -02 10 09.18  .23707 1.2340 163.9 21.7  73d   3
2021 09 19 07  00 50 50.549   -02 11 51.06  .23709 1.2340 163.9 21.7  73d   3
2021 09 19 08  00 50 58.225   -02 13 32.92  .23711 1.2340 163.9 21.7  73d   3
2021 09 19 09  00 51 05.897   -02 15 14.75  .23713 1.2341 163.9 21.7  73d   3
2021 09 19 10  00 51 13.564   -02 16 56.56  .23715 1.2341 163.9 21.7  73d   3
2021 09 19 11  00 51 21.227   -02 18 38.35  .23717 1.2341 163.9 21.7  73d   3
2021 09 19 12  00 51 28.884   -02 20 20.11  .23719 1.2341 163.9 21.7  73d   3
2021 09 19 13  00 51 36.537   -02 22 01.85  .23722 1.2341 163.9 21.7  73d   3
2021 09 19 14  00 51 44.186   -02 23 43.57  .23724 1.2341 163.9 21.7  73d   3
2021 09 19 15  00 51 51.829   -02 25 25.26  .23726 1.2341 163.9 21.7  73d   3
2021 09 19 16  00 51 59.468   -02 27 06.92  .23728 1.2341 163.9 21.7  73d   3
2021 09 19 17  00 52 07.102   -02 28 48.56  .23730 1.2342 163.9 21.7  73d   3
2021 09 19 18  00 52 14.731   -02 30 30.18  .23732 1.2342 163.9 21.7  73d   3
2021 09 19 19  00 52 22.355   -02 32 11.76  .23735 1.2342 163.9 21.7  73d   3
2021 09 19 20  00 52 29.975   -02 33 53.33  .23737 1.2342 163.9 21.7  73d   3
2021 09 19 21  00 52 37.589   -02 35 34.86  .23739 1.2342 163.9 21.7  73d   3
2021 09 19 22  00 52 45.199   -02 37 16.36  .23742 1.2342 163.9 21.7  73d   3
2021 09 19 23  00 52 52.804   -02 38 57.84  .23744 1.2342 163.9 21.7  73d   3
2021 09 20 00  00 53 00.404   -02 40 39.29  .23747 1.2342 163.9 21.7  73d   3
2021 09 20 01  00 53 07.999   -02 42 20.71  .23749 1.2343 163.9 21.7  73d   3
2021 09 20 02  00 53 15.589   -02 44 02.10  .23751 1.2343 163.9 21.7  73d   3
2021 09 20 03  00 53 23.175   -02 45 43.46  .23754 1.2343 163.9 21.7  73d   3
2021 09 20 04  00 53 30.755   -02 47 24.79  .23756 1.2343 163.9 21.7  73d   3
2021 09 20 05  00 53 38.330   -02 49 06.09  .23759 1.2343 163.9 21.7  73d   3
2021 09 20 06  00 53 45.901   -02 50 47.36  .23762 1.2343 163.9 21.7  73d   3
2021 09 20 07  00 53 53.466   -02 52 28.60  .23764 1.2343 163.9 21.7  73d   3
2021 09 20 08  00 54 01.027   -02 54 09.81  .23767 1.2344 163.9 21.7  73d   3
2021 09 20 09  00 54 08.582   -02 55 50.98  .23770 1.2344 163.9 21.7  73d   3
2021 09 20 10  00 54 16.133   -02 57 32.13  .23772 1.2344 163.9 21.7  73d   3
2021 09 20 11  00 54 23.678   -02 59 13.23  .23775 1.2344 163.9 21.7  73d   3
2021 09 20 12  00 54 31.218   -03 00 54.31  .23778 1.2344 163.9 21.7  73d   3